RH
90 93 83 77 79 77 78 80 83 84 84 83 83 80 78 76 77 76 76 75 75 76 76 71 72 71 70 71 70 70 70 68 70 70 72 73 70 71 73 74 70 50 75
70 84 81 77 76 78 81 82 82 84 83 83 80 77 77 77 76 76 75 76 75 73 73 72 71 70 69 71 72 71 70 67 67 70 70 71 71 75 70 72 68 64 75
63 76 74 82 79 80 81 83 83 81 80 80 79 77 76 75 75 75 73 72 73 74 72 71 70 71 69 68 70 69 70 68 67 70 68 52 57 70 66 67 72 74 75
60 61 60 83 82 80 83 83 82 77 78 78 78 77 75 75 74 73 73 74 74 75 71 70 70 69 69 68 67 67 70 69 68 72 55 52 50 67 71 70 73 72 72
58 57 64 82 83 80 81 81 81 79 77 78 77 76 75 74 72 72 73 73 74 73 71 71 69 67 66 65 66 70 71 72 70 59 58 58 51 61 73 72 73 74 68
55 54 72 80 78 79 80 80 77 77 77 77 77 75 74 72 71 72 72 73 74 71 70 69 69 68 64 64 68 66 67 68 70 54 57 62 54 68 70 71 71 75 73
51 58 60 81 80 80 80 78 76 76 76 77 76 74 73 71 70 70 71 71 73 70 68 68 67 67 66 69 63 70 70 71 59 59 58 58 59 71 73 74 74 75 76
52 54 58 77 79 79 77 77 77 76 76 76 76 74 72 71 70 69 70 70 69 68 67 68 67 66 66 71 71 70 73 66 58 61 60 59 71 75 72 73 73 74 75
52 55 56 57 68 76 76 76 77 77 76 76 74 74 73 70 68 67 70 68 67 66 66 66 66 66 66 70 72 72 73 72 60 59 53 56 78 74 71 71 72 75 73
56 55 59 57 56 62 61 74 74 76 76 75 74 72 72 69 67 68 70 71 66 64 65 66 64 64 64 65 71 73 74 76 54 56 56 54 81 73 66 72 66 72 70
61 58 56 55 64 70 66 64 71 72 74 74 70 72 68 55 59 59 70 68 66 66 67 65 67 66 67 69 69 68 70 50 46 46 46 76 82 71 68 72 70 73 69
64 61 56 58 62 64 57 68 68 60 53 57 57 65 59 64 66 65 68 71 69 66 66 73 74 70 60 41 39 61 45 52 47 47 44 74 79 67 66 68 74 68 71
57 58 60 64 69 65 63 62 61 60 59 60 69 67 65 64 66 57 57 55 58 62 46 51 51 48 52 42 40 38 51 54 44 43 54 73 78 70 67 72 69 72 72
60 59 58 62 71 68 63 61 60 61 60 58 59 73 70 60 64 67 61 61 66 55 59 59 51 60 56 56 44 41 43 43 43 44 53 73 74 70 69 68 72 71 74
59 59 60 66 74 73 76 64 63 66 60 57 63 65 60 58 66 65 68 61 63 60 54 59 73 56 69 64 64 48 43 48 48 44 46 74 76 74 69 74 71 74 71
58 59 60 67 72 73 74 77 71 68 62 64 58 58 68 64 69 63 65 62 59 61 58 62 67 61 69 59 55 54 49 44 52 53 44 49 70 73 72 69 72 74 70
58 60 64 68 69 78 76 75 70 64 60 59 57 67 66 68 72 74 64 61 60 67 74 73 67 66 47 46 54 47 43 51 43 52 48 44 47 68 70 69 70 72 74
58 66 66 58 64 72 74 73 67 62 60 57 56 58 65 68 73 74 66 62 62 67 71 63 77 71 55 56 56 50 45 47 55 50 48 49 48 39 61 71 72 71 69
61 66 68 67 66 71 76 71 70 69 64 57 56 56 64 68 70 70 62 61 71 63 63 69 60 62 54 50 52 45 46 48 58 38 48 51 51 48 44 66 74 76 67
59 65 67 66 71 76 72 75 66 62 59 57 56 56 67 66 68 70 62 69 68 62 64 62 71 61 54 53 40 47 47 49 47 46 45 43 52 54 48 56 53 52 73
58 64 70 75 77 74 71 69 65 62 60 60 60 68 70 69 72 76 63 69 69 67 69 73 65 66 52 57 49 50 48 48 46 46 47 43 52 50 52 53 50 49 52
58 65 73 76 80 78 69 71 62 63 56 59 61 69 69 69 74 72 73 68 72 63 77 75 72 57 52 56 50 50 47 46 42 40 49 46 54 43 43 48 59 64 57
58 67 71 78 80 79 76 71 71 68 68 66 65 63 65 70 72 76 75 70 74 70 62 74 70 68 52 60 62 49 48 44 48 44 53 48 55 45 44 49 52 58 61
56 60 69 75 79 76 80 74 81 65 61 57 60 59 61 69 68 70 74 74 76 65 72 72 68 64 63 55 57 55 62 59 44 46 44 49 50 46 49 44 45 50 56
50 55 63 75 80 79 81 78 73 73 59 56 58 72 77 71 70 67 74 75 76 68 74 76 75 74 58 50 51 53 60 53 60 47 44 45 48 44 44 46 41 43 52
47 50 58 75 82 80 80 80 82 79 72 62 67 62 58 57 59 72 71 76 77 73 76 73 76 75 68 61 54 55 46 46 46 48 48 52 45 45 42 41 45 44 43
Wind_Speed
10 6 18 15 17 17 16 17 17 17 17 16 15 15 14 13 12 12 11 10 9 10 11 9 8 10 9 10 10 10 10 8 8 9 9 11 11 12 12 11 11 13 13
16 12 14 17 18 17 17 17 17 17 17 16 15 14 14 12 11 11 9 8 10 10 10 9 8 8 8 8 8 9 8 8 8 8 10 11 11 12 11 10 7 14 13
15 11 11 17 19 19 18 17 17 17 16 16 14 13 12 11 11 10 10 9 10 10 9 8 7 7 6 6 6 6 8 9 8 8 7 6 9 10 11 11 11 13 13
15 13 13 16 18 19 17 16 16 17 16 15 14 12 11 10 9 9 9 8 8 10 9 8 6 5 5 3 5 5 7 8 8 8 6 7 9 10 10 13 11 13 13
15 14 14 16 16 17 16 16 15 15 15 14 13 11 10 9 8 8 8 7 8 9 9 7 6 5 3 2 3 6 8 9 9 5 6 6 7 10 11 11 13 12 9
16 15 16 17 17 16 16 15 15 14 14 13 11 10 9 8 7 7 6 6 7 9 7 6 7 5 4 2 2 2 5 8 10 6 6 6 7 11 10 10 12 12 12
16 14 16 16 15 15 15 15 14 13 12 11 10 9 8 7 7 6 6 6 8 7 6 6 6 5 5 5 3 6 5 7 7 6 6 5 8 10 10 13 12 12 13
16 15 16 15 15 14 14 14 13 12 11 10 9 7 7 6 6 5 6 7 7 6 6 6 5 4 4 6 6 7 9 9 6 5 6 5 6 9 11 12 10 11 12
16 15 14 14 14 14 14 13 12 11 10 8 7 6 5 5 4 4 6 6 6 5 6 5 4 3 4 4 6 6 7 6 5 4 6 4 4 7 10 11 9 9 10
14 14 14 13 13 12 12 12 10 9 8 7 6 4 3 2 2 3 3 4 3 5 6 4 2 1 1 3 4 6 7 7 5 5 4 4 4 9 9 10 10 9 10
13 14 14 14 12 11 9 9 9 8 7 6 6 4 4 0 1 1 4 2 2 3 6 4 4 4 4 4 4 3 7 3 5 3 2 4 4 9 9 11 10 9 10
18 16 14 13 13 12 8 8 7 6 5 4 4 4 2 1 2 4 2 4 4 6 6 5 6 4 3 3 4 6 1 4 3 3 1 5 6 6 8 7 11 10 8
18 14 15 13 12 12 8 7 5 5 4 4 5 4 3 2 2 1 0 2 1 3 2 2 3 2 4 3 3 4 4 3 2 2 6 4 4 6 8 9 7 9 8
18 17 16 15 12 11 7 7 7 6 5 5 5 5 3 3 2 2 1 1 1 1 2 2 2 2 2 2 2 4 4 3 3 2 4 3 5 4 7 9 10 9 8
18 17 16 15 13 11 10 7 7 7 6 6 5 5 4 4 3 2 1 2 2 1 0 1 0 1 3 3 3 1 1 2 2 2 2 4 6 5 5 7 9 10 10
17 17 16 16 14 12 11 10 8 7 6 6 5 5 5 4 3 2 2 2 3 2 2 2 3 3 2 2 2 3 3 1 2 3 3 4 2 5 4 4 8 10 9
17 16 17 16 15 14 13 10 8 7 7 6 6 7 7 6 5 4 3 3 3 2 3 1 2 2 3 4 3 2 1 4 3 4 3 2 4 4 5 5 5 8 9
16 18 16 14 16 15 13 10 8 7 7 7 6 6 8 8 7 5 4 3 2 2 2 2 2 2 2 3 3 1 2 2 3 3 1 1 1 1 6 5 6 6 6
17 17 17 16 16 16 13 10 9 9 8 7 6 7 8 9 8 7 5 4 3 2 2 1 1 2 2 2 1 3 3 4 1 3 2 1 2 2 1 6 4 5 6
17 16 16 14 16 14 10 9 8 8 8 7 8 8 9 8 9 7 6 4 3 3 3 2 1 2 1 2 2 3 3 4 2 4 3 2 3 3 2 2 3 4 3
18 18 17 17 16 13 11 11 10 10 8 8 8 10 10 10 10 9 7 5 4 5 3 3 3 3 2 1 3 3 4 4 5 4 3 4 5 4 4 3 1 0 4
21 20 18 18 17 15 11 9 8 9 8 9 7 8 9 9 9 9 9 7 6 5 5 5 4 2 1 1 1 1 3 3 3 4 3 3 5 3 5 5 5 5 4
21 21 18 18 17 16 14 10 8 6 6 7 8 7 8 9 9 9 9 7 6 6 5 5 5 4 2 2 1 1 3 2 2 2 3 2 3 2 3 4 4 4 4
22 20 19 18 17 16 16 13 15 12 11 11 10 9 8 10 9 9 9 9 7 5 5 5 5 4 3 4 3 2 3 3 3 3 3 3 3 3 2 2 3 3 2
20 20 19 17 17 16 16 16 14 13 12 9 9 10 10 8 9 9 10 10 9 7 6 5 7 5 4 3 3 3 2 2 2 2 4 5 4 4 3 4 2 3 4
20 19 17 18 18 17 17 18 16 15 13 11 10 10 10 10 9 10 10 10 9 8 8 6 6 6 5 3 4 4 3 3 4 4 4 3 5 4 4 4 5 5 5
Wind_Direction
138 161 150 147 144 139 131 120 124 122 119 123 122 119 118 114 109 105 100 95 86 83 95 102 97 103 104 100 97 93 88 95 100 108 114 111 110 106 104 102 137 111 114
140 171 153 144 142 135 128 126 123 122 124 124 119 122 118 115 113 104 102 95 91 82 82 87 93 99 99 103 102 101 97 96 105 114 118 113 106 110 111 112 91 104 107
142 146 148 142 138 135 132 127 124 124 126 123 124 122 120 118 110 105 94 82 79 82 77 84 91 100 106 120 116 112 112 105 119 102 112 126 115 117 118 118 115 106 104
138 146 142 140 132 131 130 127 127 130 130 127 128 125 121 114 106 100 92 76 75 77 86 78 73 81 106 129 135 131 118 113 126 109 149 136 125 120 130 123 120 123 115
138 140 142 139 128 132 129 130 131 133 133 131 129 127 122 116 111 100 88 81 74 73 74 82 80 74 96 141 174 155 155 145 123 141 123 132 126 123 114 125 120 117 116
144 145 143 139 134 137 134 133 136 136 133 131 131 127 119 115 110 98 86 74 69 76 79 82 81 75 71 55 83 104 127 152 141 112 122 124 118 118 128 127 119 119 121
146 149 146 142 139 139 137 136 139 136 134 133 133 128 121 113 101 93 84 68 74 83 88 82 84 82 69 69 92 75 113 119 128 121 121 134 116 134 129 110 114 116 120
148 155 147 145 144 145 145 142 142 140 134 137 135 131 117 109 98 87 75 69 75 87 92 93 90 86 90 81 72 81 102 97 117 115 125 129 103 147 126 108 111 115 113
155 156 158 157 153 154 151 152 146 142 139 138 136 129 119 115 103 90 78 73 79 86 92 93 101 105 96 116 110 101 125 111 109 114 140 152 138 134 130 121 117 109 111
164 162 164 165 165 166 162 162 156 149 148 148 143 139 143 147 131 96 93 76 90 93 78 51 44 51 103 130 149 136 125 124 107 127 156 152 197 156 140 142 135 137 122
170 171 171 173 173 170 171 170 171 165 165 168 169 176 194 204 18 43 29 25 43 79 37 34 354 1 46 71 65 149 162 117 140 126 173 128 217 165 148 153 147 137 135
175 178 179 182 181 179 178 181 181 181 189 193 188 206 228 316 324 333 5 18 54 58 54 52 28 14 324 28 72 148 135 103 153 151 119 182 214 181 166 161 157 155 155
179 182 184 185 187 186 184 184 189 194 196 201 207 220 237 270 297 313 28 28 58 47 47 69 54 44 42 46 56 78 109 146 101 85 104 179 208 214 174 170 169 168 174
185 189 187 190 190 192 189 191 195 202 204 208 207 216 234 240 259 332 345 2 3 28 43 50 22 89 95 72 22 62 109 134 138 107 111 184 219 222 212 188 178 179 189
189 191 191 194 195 195 198 194 206 211 208 216 213 212 235 252 271 312 309 321 321 0 356 304 41 22 57 10 328 337 2 86 132 127 128 172 207 220 200 213 195 190 191
194 193 192 197 199 199 203 202 208 214 211 219 222 225 225 243 259 284 253 280 292 313 325 329 354 40 47 358 342 277 335 35 129 159 143 139 188 208 213 203 206 208 211
195 194 195 197 198 202 204 205 212 215 211 220 225 229 229 231 233 258 249 245 281 299 284 263 291 36 37 36 33 58 4 34 90 144 171 148 145 151 191 180 189 204 217
197 196 196 197 197 202 204 203 212 214 217 220 226 234 227 231 233 237 251 251 277 271 238 251 346 331 38 42 20 359 78 94 23 100 134 212 194 148 152 167 176 195 214
202 197 197 199 201 203 205 207 211 212 221 224 228 232 230 232 229 234 245 253 237 253 257 253 101 357 40 82 172 32 63 46 52 82 38 242 175 194 120 129 183 197 205
202 201 197 196 203 202 202 205 211 213 223 227 230 232 232 229 229 228 237 233 224 240 211 181 128 90 65 30 53 67 42 72 78 60 58 44 90 126 106 56 157 143 212
206 202 200 196 198 193 199 200 205 212 214 223 225 231 231 231 231 221 227 214 208 232 219 179 158 180 163 104 162 122 74 81 77 58 49 54 77 81 77 65 14 12 127
204 205 200 199 195 194 194 198 202 205 216 222 222 223 221 220 215 211 210 206 202 210 206 186 182 179 114 116 123 141 158 140 114 65 73 69 59 61 72 67 83 84 86
205 203 203 200 198 195 194 189 192 194 213 208 217 217 213 213 211 212 206 208 203 222 222 191 186 201 171 138 56 331 184 210 175 127 128 112 117 103 79 72 73 94 100
207 202 202 200 200 200 192 194 196 203 210 217 213 214 212 211 212 211 206 204 209 217 225 195 189 202 188 185 154 119 40 12 236 185 174 182 199 199 162 175 134 120 125
206 204 200 197 199 199 196 201 198 208 211 213 216 215 220 213 216 215 205 203 207 216 222 199 184 196 190 222 193 158 151 156 153 271 215 190 211 212 212 230 219 206 196
208 207 204 198 202 198 199 202 204 209 212 211 213 215 221 218 214 215 208 210 209 211 218 207 200 196 204 223 206 199 200 197 185 206 234 230 242 195 225 229 228 231 225